FW2897 Weather Reports


Display with metric or nautical units.
time (UTC)temp
F
wind
direction
speed
MPH
gust
MPH
rain 1hr
in
rain 24hr
in
rain mn
in
humidity
%
barometer
mb
20260904173510 87 290 1.0 3.0 0.00 0.58 0.08 60 1012.0
20260904173234 87 295 1.0 11.0 0.00 0.58 0.08 63 1012.0
20260904172507 87 235 1.0 11.0 0.00 0.58 0.08 59 1012.2
20260904172003 87 306 1.0 7.0 0.00 0.58 0.08 61 1012.0
20260904171507 88 1 1.0 5.0 0.00 0.58 0.08 62 1012.0
20260904170953 87 297 2.0 5.0 0.00 0.58 0.08 62 1012.0
20260904170438 87 30 2.0 6.0 0.00 0.58 0.08 66 1012.0
20260904170134 87 300 1.0 6.0 0.00 0.58 0.08 61 1012.0
20260904165403 87 285 1.0 6.0 0.00 0.58 0.08 62 1012.1
20260904165126 87 13 1.0 6.0 0.00 0.58 0.08 63 1012.0
20260904164345 87 239 1.0 5.0 0.00 0.58 0.08 64 1012.0
20260904163843 86 329 1.0 9.0 0.00 0.58 0.08 63 1012.1
20260904163345 86 254 1.0 9.0 0.00 0.58 0.08 63 1012.2
20260904162829 86 305 0.0 6.0 0.00 0.58 0.08 64 1012.3
20260904162330 86 307 1.0 7.0 0.00 0.58 0.08 65 1012.3
20260904161816 86 287 1.0 7.0 0.00 0.58 0.08 61 1012.2
20260904161536 86 319 1.0 6.0 0.00 0.58 0.08 63 1012.4
20260904160814 86 297 1.0 6.0 0.00 0.58 0.08 64 1012.4
20260904160316 85 270 2.0 8.0 0.00 0.58 0.08 64 1012.4
20260904155752 85 308 1.0 8.0 0.00 0.58 0.08 63 1012.4
20260904155448 86 285 1.0 6.0 0.00 0.58 0.08 64 1012.5
20260904154704 85 317 1.0 7.0 0.00 0.58 0.08 65 1012.4
20260904154141 86 303 1.0 7.0 0.00 0.58 0.08 65 1012.4
20260904154129 85 289 1.0 6.0 0.00 0.58 0.08 66 1012.5
20260904153120 86 102 1.0 6.0 0.00 0.58 0.08 67 1012.4
20260904152559 85 27 1.0 10.0 0.00 0.58 0.08 67 1012.5
20260904152058 85 260 1.0 10.0 0.00 0.58 0.08 67 1012.4
20260904151533 85 310 1.0 8.0 0.00 0.58 0.08 67 1012.4
20260904151046 84 322 2.0 7.0 0.00 0.58 0.08 69 1012.4
20260904150532 84 332 2.0 8.0 0.00 0.58 0.08 66 1012.4
20260904150004 84 18 2.0 8.0 0.00 0.58 0.08 67 1012.5
20260904145441 84 249 1.0 4.0 0.00 0.58 0.08 69 1012.5
20260904144938 84 328 1.0 5.0 0.00 0.58 0.08 69 1012.5
20260904144437 83 316 1.0 7.0 0.00 0.58 0.08 69 1012.5
20260904143911 83 237 1.0 7.0 0.00 0.58 0.08 69 1012.4
20260904143345 83 333 2.0 9.0 0.00 0.58 0.08 70 1012.5
20260904143045 82 267 2.0 9.0 0.00 0.58 0.08 69 1012.4
20260904142252 82 285 1.0 10.0 0.00 0.58 0.08 71 1012.4
20260904141740 82 11 2.0 7.0 0.00 0.58 0.08 70 1012.3
20260904141224 82 292 2.0 8.0 0.00 0.58 0.08 72 1012.4
20260904140719 82 280 1.0 8.0 0.00 0.58 0.08 71 1012.3
20260904140152 81 237 1.0 6.0 0.00 0.58 0.08 71 1012.2
20260904135653 81 230 1.0 6.0 0.00 0.58 0.08 72 1012.1
20260904135348 81 297 1.0 7.0 0.00 0.58 0.08 72 1012.2
20260904134819 81 303 1.0 8.0 0.00 0.58 0.08 73 1012.2
20260904134032 81 316 1.0 8.0 0.00 0.58 0.08 74 1012.2
20260904133526 80 273 1.0 7.0 0.00 0.58 0.08 75 1012.3
20260904133024 80 287 1.0 7.0 0.00 0.58 0.08 76 1012.4
20260904132521 80 320 1.0 7.0 0.00 0.58 0.08 76 1012.2
20260904132018 79 257 2.0 8.0 0.00 0.58 0.08 77 1012.1
20260904131451 79 299 1.0 8.0 0.00 0.58 0.08 77 1012.2
20260904130948 78 221 2.0 10.0 0.00 0.58 0.08 79 1012.2
20260904130433 78 65 3.0 12.0 0.00 0.58 0.08 79 1012.2
20260904125919 77 353 3.0 12.0 0.00 0.58 0.08 79 1012.3
20260904125417 77 353 2.0 9.0 0.00 0.58 0.08 80 1012.3
20260904124912 77 309 2.0 11.0 0.00 0.58 0.08 81 1012.4
20260904124632 76 321 3.0 11.0 0.00 0.58 0.08 81 1012.4
20260904123845 76 308 3.0 10.0 0.00 0.58 0.08 81 1012.5
20260904123339 76 311 2.0 10.0 0.00 0.58 0.08 82 1012.4
20260904122815 75 281 2.0 10.0 0.00 0.58 0.08 82 1012.5
20260904122246 75 330 2.0 10.0 0.00 0.58 0.08 83 1012.4
20260904122007 75 292 2.0 10.0 0.00 0.58 0.08 83 1012.3
20260904121217 75 294 2.0 10.0 0.00 0.58 0.08 83 1012.4
20260904120716 75 302 2.0 8.0 0.00 0.58 0.08 84 1012.4
20260904120147 74 295 1.0 8.0 0.00 0.58 0.08 84 1012.3
20260904115912 74 331 2.0 8.0 0.00 0.58 0.08 84 1012.3
20260904115338 74 331 2.0 8.0 0.00 0.58 0.08 84 1012.4
20260904114612 74 323 2.0 8.0 0.00 0.58 0.08 85 1012.3
20260904114124 73 303 2.0 8.0 0.00 0.58 0.08 85 1012.4
20260904113542 73 287 1.0 5.0 0.00 0.58 0.08 86 1012.5
20260904113040 73 316 2.0 6.0 0.00 0.58 0.08 86 1012.5
20260904112534 72 311 2.0 6.0 0.00 0.59 0.08 87 1012.5
20260904112255 72 312 2.0 8.0 0.00 0.59 0.08 87 1012.2
20260904111954 72 281 2.0 8.0 0.00 0.59 0.08 87 1012.0
20260904110940 72 303 1.0 7.0 0.00 0.59 0.08 87 1012.0
20260904110700 72 300 1.0 8.0 0.00 0.59 0.08 87 1011.9
20260904110138 72 299 1.0 8.0 0.00 0.59 0.08 87 1011.9
20260904105343 72 303 1.0 4.0 0.00 0.59 0.08 87 1011.9
20260904104842 72 294 0.0 4.0 0.00 0.59 0.08 87 1011.9
20260904104336 72 292 1.0 4.0 0.00 0.59 0.08 87 1011.9
20260904103835 72 324 1.0 5.0 0.00 0.59 0.08 87 1011.7
20260904103533 73 292 1.0 6.0 0.00 0.59 0.08 87 1011.4
20260904103029 72 341 1.0 6.0 0.00 0.59 0.08 88 1011.5
20260904102236 72 308 1.0 5.0 0.00 0.59 0.08 88 1011.4
20260904101736 73 307 0.0 5.0 0.00 0.59 0.08 88 1011.4
20260904101208 73 304 1.0 5.0 0.00 0.59 0.08 88 1011.2
20260904100705 73 316 1.0 5.0 0.00 0.59 0.08 88 1011.4
20260904100136 73 322 1.0 5.0 0.00 0.59 0.08 88 1011.5
20260904095635 73 310 1.0 3.0 0.00 0.59 0.08 89 1011.5
20260904095108 73 297 1.0 5.0 0.00 0.59 0.08 89 1011.5
20260904094605 73 291 0.0 4.0 0.00 0.59 0.08 89 1011.5
20260904094040 73 283 0.0 4.0 0.00 0.59 0.08 90 1011.6
20260904093543 73 296 0.0 4.0 0.00 0.59 0.08 90 1011.6
20260904093242 73 290 0.0 3.0 0.00 0.59 0.08 90 1011.7
20260904092459 73 295 0.0 2.0 0.00 0.63 0.08 90 1011.6
20260904091959 73 312 0.0 2.0 0.00 0.70 0.08 91 1011.7
20260904091433 73 309 0.0 2.0 0.00 0.70 0.08 91 1011.9
20260904090920 73 281 0.0 3.0 0.00 0.70 0.08 91 1012.1
20260904090624 73 288 0.0 3.0 0.00 0.71 0.08 92 1012.1
20260904085859 73 297 0.0 3.0 0.00 0.71 0.08 92 1012.2
20260904085340 74 312 0.0 3.0 0.00 0.80 0.08 92 1012.3
20260904085108 74 281 0.0 2.0 0.00 0.92 0.08 92 1012.0
20260904084337 74 293 0.0 2.0 0.00 0.94 0.08 93 1012.1
20260904083810 74 265 0.0 4.0 0.00 0.94 0.08 93 1012.2
20260904083310 74 298 1.0 4.0 0.00 0.94 0.08 93 1012.2
20260904082754 74 282 1.0 4.0 0.00 0.94 0.08 94 1012.2
20260904082256 74 289 1.0 4.0 0.00 0.94 0.08 94 1012.1
20260904081755 74 290 1.0 4.0 0.00 0.94 0.08 94 1012.1
20260904081234 74 287 1.0 4.0 0.00 0.94 0.08 94 1012.1
20260904080732 74 310 1.0 4.0 0.00 0.94 0.08 94 1012.2
20260904080232 74 302 1.0 4.0 0.00 0.94 0.08 94 1012.2
20260904075714 74 266 1.0 4.0 0.00 0.94 0.08 94 1012.2
20260904075158 74 311 1.0 3.0 0.00 0.94 0.08 94 1012.2
20260904074927 74 291 0.0 2.0 0.00 0.94 0.08 95 1012.1
20260904074135 74 321 0.0 2.0 0.00 0.94 0.08 95 1012.3
20260904073842 74 322 0.0 1.0 0.00 0.94 0.08 95 1012.3
20260904073056 74 295 0.0 1.0 0.00 0.94 0.08 95 1012.2
20260904072823 74 304 0.0 0.0 0.00 0.94 0.08 95 1012.4
20260904072054 73 28 0.0 0.0 0.00 0.94 0.08 94 1012.2
20260904071527 73 28 0.0 0.0 0.00 0.94 0.08 94 1012.2
20260904071002 73 28 0.0 0.0 0.00 0.94 0.08 94 1011.9
20260904070438 73 28 0.0 0.0 0.00 0.94 0.08 94 1011.8
20260904065934 73 27 0.0 0.0 0.00 0.94 0.08 94 1011.6
20260904065430 73 28 0.0 0.0 0.00 0.94 0.08 94 1011.7
20260904064905 73 28 0.0 0.0 0.00 0.94 0.08 94 1011.7
20260904064608 73 27 0.0 0.0 0.00 0.94 0.08 94 1011.6
20260904063836 73 28 0.0 0.0 0.00 0.94 0.08 94 1011.6
20260904063332 73 30 0.0 0.0 0.00 0.94 0.08 94 1011.4
20260904062830 73 30 0.0 0.0 0.00 0.94 0.08 94 1011.4
20260904062327 72 30 0.0 0.0 0.00 0.95 0.08 94 1011.5
20260904062029 72 30 0.0 0.0 0.00 0.96 0.08 94 1011.5
20260904061300 72 30 0.0 0.0 0.00 1.01 0.08 94 1011.4
20260904060754 72 30 0.0 0.0 0.00 1.03 0.08 94 1011.6
20260904060251 72 30 0.0 0.0 0.00 1.12 0.08 93 1011.6
20260904060016 72 358 0.0 0.0 0.00 1.12 0.08 94 1011.5
20260904055223 72 358 0.0 0.0 0.00 1.13 0.08 94 1011.4
20260904054946 72 358 0.0 0.0 0.00 1.15 0.08 94 1011.5
20260904054151 72 358 0.0 0.0 0.00 1.44 0.08 94 1011.8
20260904053647 72 358 0.0 0.0 0.00 1.54 0.08 93 1012.2
20260904053122 72 358 0.0 0.0 0.00 1.54 0.08 93 1012.4
20260904052557 72 358 0.0 0.0 0.00 1.54 0.08 93 1012.2
20260904052049 72 358 0.0 0.0 0.00 1.54 0.08 93 1012.3
20260904051548 72 358 0.0 0.0 0.00 1.54 0.08 93 1012.2
20260904051021 72 358 0.0 0.0 0.01 1.54 0.08 93 1012.2
20260904050454 72 358 0.0 0.0 0.02 1.54 0.08 93 1012.2
20260904045950 72 358 0.0 0.0 0.08 1.54 0.08 93 1012.3
20260904045426 72 4 0.0 0.0 0.31 1.54 0.08 92 1012.2
20260904044922 72 4 0.0 0.0 0.37 1.54 0.08 92 1012.2
20260904044419 72 4 0.0 0.0 0.39 1.54 0.08 92 1012.0
20260904044140 72 4 0.0 0.0 0.51 1.54 0.08 92 1012.0
20260904043412 72 4 0.0 0.0 0.58 1.54 0.08 92 1012.0
20260904042848 72 4 0.0 0.0 0.58 1.54 0.08 91 1012.0
20260904042343 73 4 0.0 0.0 0.58 1.54 0.08 91 1012.0
20260904041841 73 353 0.0 2.0 0.58 1.54 0.08 90 1012.1
20260904041327 73 305 0.0 11.0 0.58 1.54 0.08 89 1012.4
20260904040824 73 301 1.0 11.0 0.56 1.52 0.06 88 1012.6
20260904040309 74 322 4.0 15.0 0.56 1.52 0.06 88 1012.9
20260904035807 75 323 3.0 15.0 0.39 1.35 1.36 86 1013.5
20260904035243 77 6 1.0 4.0 0.22 1.18 1.19 89 1014.0
20260904034715 77 203 1.0 5.0 0.21 1.17 1.17 88 1013.2
20260904034213 78 340 1.0 5.0 0.16 1.12 1.13 86 1013.5
20260904033645 79 287 0.0 3.0 0.01 0.97 0.98 83 1013.7
20260904033144 79 304 0.0 0.0 0.00 0.96 0.96 83 1013.1
20260904032615 79 304 0.0 0.0 0.00 0.96 0.96 83 1013.1
20260904032110 79 304 0.0 0.0 0.00 0.96 0.96 83 1013.2
20260904031824 79 304 0.0 0.0 0.00 0.96 0.96 83 1013.3
20260904031102 79 304 0.0 0.0 0.00 0.96 0.96 83 1013.4
20260904030756 79 304 0.0 0.0 0.00 0.96 0.96 83 1013.5
20260904030029 79 304 0.0 0.0 0.00 0.96 0.96 83 1013.5
20260904025528 79 304 0.0 0.0 0.00 0.96 0.96 83 1013.5
20260904025248 78 304 0.0 0.0 0.00 0.96 0.96 83 1013.5
20260904024457 78 304 0.0 0.0 0.00 0.96 0.96 84 1013.6
20260904023955 78 304 0.0 0.0 0.00 0.96 0.96 84 1013.6
20260904023427 78 236 0.0 0.0 0.00 0.96 0.96 85 1013.5
20260904023147 78 236 0.0 0.0 0.00 0.96 0.96 84 1013.5
20260904022359 78 236 0.0 0.0 0.00 0.96 0.96 84 1013.3
20260904021832 79 236 0.0 0.0 0.00 0.96 0.96 83 1013.2
20260904021526 79 236 0.0 0.0 0.00 0.96 0.96 83 1013.2
20260904020803 79 236 0.0 0.0 0.00 0.96 0.96 82 1013.4
20260904020236 79 237 0.0 0.0 0.00 0.96 0.96 82 1013.2
20260904015734 79 232 0.0 0.0 0.00 0.96 0.96 81 1013.2
20260904015212 80 232 0.0 0.0 0.00 0.96 0.96 81 1013.1
20260904014711 80 232 0.0 0.0 0.00 0.96 0.96 80 1013.4
20260904014155 80 232 0.0 0.0 0.00 0.96 0.96 80 1013.4
20260904013655 80 232 0.0 0.0 0.00 0.96 0.96 79 1013.5
20260904013158 80 288 0.0 0.0 0.00 0.96 0.96 79 1013.5
20260904012654 80 288 0.0 2.0 0.00 0.96 0.96 78 1013.6
20260904012156 81 288 0.0 2.0 0.00 0.96 0.96 78 1013.8
20260904011853 81 286 0.0 2.0 0.00 0.96 0.96 78 1014.0
20260904011129 80 288 0.0 2.0 0.00 0.96 0.96 79 1014.0
20260904010610 80 299 0.0 2.0 0.00 0.96 0.96 79 1014.2
20260904010110 80 288 0.0 2.0 0.00 0.96 0.96 79 1014.2
20260904010050 80 295 0.0 3.0 0.00 0.96 0.96 80 1014.3
20260904005100 80 260 0.0 3.0 0.00 0.96 0.96 80 1014.1
20260904004600 80 329 0.0 1.0 0.00 0.96 0.96 81 1014.1
20260904004101 80 282 0.0 1.0 0.00 0.96 0.96 81 1014.1
20260904003534 80 265 0.0 0.0 0.00 0.96 0.96 82 1014.1
20260904003018 80 264 0.0 0.0 0.00 0.96 0.96 82 1014.1
20260904002450 80 255 0.0 0.0 0.00 0.96 0.96 83 1014.0
20260904001930 79 255 0.0 0.0 0.00 0.96 0.96 83 1014.0
20260904001638 80 255 0.0 0.0 0.00 0.96 0.96 82 1013.8
20260904001121 80 255 0.0 0.0 0.00 0.96 0.96 82 1013.6
20260904000333 80 255 0.0 0.0 0.00 0.96 0.96 81 1013.5
20260904000058 80 255 0.0 0.0 0.00 0.96 0.96 81 1013.5
20260903235330 81 255 0.0 1.0 0.00 0.96 0.96 80 1013.4
20260903234843 81 255 0.0 1.0 0.00 0.96 0.96 80 1013.6
20260903234328 81 255 0.0 1.0 0.00 0.96 0.96 79 1013.6
20260903233827 81 255 0.0 1.0 0.00 0.96 0.96 79 1013.8
20260903233326 82 255 0.0 1.0 0.00 0.96 0.96 78 1013.7
20260903232805 82 255 0.0 1.0 0.00 0.96 0.96 78 1013.6
20260903232306 82 255 0.0 1.0 0.00 0.96 0.96 78 1013.8
20260903231803 82 255 0.0 1.0 0.00 0.96 0.96 77 1013.5
20260903231525 82 259 0.0 2.0 0.00 0.96 0.96 77 1013.4
20260903231233 82 286 0.0 2.0 0.00 0.96 0.96 77 1013.5
20260903230206 83 228 0.0 1.0 0.00 0.96 0.96 77 1013.4
20260903225639 83 228 0.0 2.0 0.00 0.96 0.96 77 1013.4
20260903225112 83 227 0.0 2.0 0.00 0.96 0.96 76 1013.5
20260903224548 83 201 0.0 2.0 0.00 0.96 0.96 76 1013.5
20260903224022 84 239 0.0 2.0 0.00 0.96 0.96 75 1013.5
20260903223517 84 359 0.0 4.0 0.00 0.96 0.96 75 1013.4
20260903223017 84 230 1.0 4.0 0.00 0.96 0.96 75 1013.4
20260903222451 84 268 1.0 5.0 0.00 0.96 0.96 75 1013.5
20260903221922 85 286 1.0 5.0 0.00 0.96 0.96 75 1013.3
20260903221421 85 243 1.0 9.0 0.00 0.96 0.96 76 1013.5
20260903220916 85 243 1.0 9.0 0.00 0.96 0.96 75 1013.6
20260903220414 85 179 1.0 7.0 0.00 0.96 0.96 76 1013.5
20260903220115 85 248 1.0 7.0 0.00 0.96 0.96 76 1013.6
20260903215321 85 223 1.0 7.0 0.00 0.96 0.96 76 1013.6
20260903214757 85 231 1.0 7.0 0.00 0.96 0.96 75 1013.5
20260903214227 85 259 1.0 5.0 0.00 0.96 0.96 75 1013.5
20260903213728 85 274 2.0 5.0 0.00 0.96 0.96 75 1013.4
20260903213213 85 203 1.0 4.0 0.00 0.96 0.96 74 1013.3
20260903212718 86 202 1.0 5.0 0.00 0.96 0.96 74 1013.3
20260903212211 86 227 0.0 5.0 0.00 0.96 0.96 74 1013.3
20260903211708 86 251 1.0 6.0 0.00 0.96 0.96 73 1013.4
20260903211201 86 325 1.0 6.0 0.00 0.96 0.96 73 1013.4
20260903210657 86 274 1.0 4.0 0.00 0.96 0.96 73 1013.4
20260903210155 86 327 1.0 4.0 0.00 0.96 0.96 74 1013.6
20260903205917 86 198 1.0 4.0 0.00 0.96 0.96 74 1013.6
20260903205128 86 233 1.0 5.0 0.00 0.96 0.96 74 1013.7
20260903204826 85 243 2.0 7.0 0.00 0.96 0.96 75 1013.7
20260903204034 85 226 2.0 7.0 0.00 0.96 0.96 76 1013.7
20260903203545 85 243 2.0 9.0 0.00 0.96 0.96 75 1013.7
20260903203005 85 226 2.0 9.0 0.00 0.96 0.96 74 1013.8
20260903202438 85 224 3.0 9.0 0.00 0.96 0.96 75 1013.9
20260903201937 85 234 3.0 9.0 0.00 0.96 0.96 74 1014.0
20260903201408 85 124 3.0 11.0 0.00 0.96 0.96 75 1014.1
20260903200919 85 191 3.0 11.0 0.00 0.96 0.96 74 1014.1
20260903200605 85 261 3.0 10.0 0.00 0.96 0.96 74 1014.0
20260903195835 85 208 3.0 9.0 0.00 0.96 0.96 74 1014.1
20260903195535 85 234 4.0 11.0 0.00 0.96 0.96 74 1014.1
20260903194809 85 212 4.0 11.0 0.00 0.96 0.96 73 1014.3
20260903194501 86 344 3.0 7.0 0.00 0.96 0.96 72 1014.3
20260903193711 87 225 2.0 8.0 0.00 0.96 0.96 73 1014.3
20260903193211 87 140 2.0 8.0 0.00 0.96 0.96 70 1014.3
20260903192910 88 242 1.0 6.0 0.00 0.96 0.96 69 1014.5
20260903192140 88 181 0.0 4.0 0.00 0.96 0.96 70 1014.5
20260903191613 87 169 1.0 6.0 0.00 0.96 0.96 70 1014.6
20260903191110 87 233 1.0 6.0 0.00 0.96 0.96 69 1014.7
20260903190541 87 256 1.0 4.0 0.00 0.96 0.96 69 1014.8
20260903190531 87 9 1.0 3.0 0.00 0.96 0.96 69 1015.0
20260903185511 88 247 1.0 5.0 0.00 0.96 0.96 68 1014.9
20260903185457 88 296 1.0 4.0 0.00 0.97 0.96 70 1015.0
20260903184457 87 229 1.0 5.0 0.00 0.98 0.96 69 1015.0
20260903184226 87 176 1.0 5.0 0.00 0.98 0.96 70 1015.0
20260903183725 87 274 1.0 7.0 0.00 0.98 0.96 71 1015.2
20260903182930 87 262 1.0 5.0 0.00 0.99 0.96 71 1015.1
20260903182441 86 231 2.0 5.0 0.00 0.99 0.96 72 1015.1
20260903181902 86 282 1.0 5.0 0.00 1.00 0.96 70 1015.1
20260903181338 86 232 1.0 6.0 0.00 1.01 0.96 71 1015.1
20260903180840 86 323 1.0 6.0 0.00 1.02 0.96 71 1015.1
20260903180315 85 217 1.0 6.0 0.00 1.04 0.96 72 1015.1
20260903175747 85 288 1.0 6.0 0.00 1.06 0.96 72 1015.2
20260903175249 85 303 1.0 4.0 0.00 1.07 0.96 73 1015.2
20260903174731 85 322 1.0 7.0 0.00 1.09 0.96 72 1015.2
20260903174232 85 88 2.0 7.0 0.00 1.09 0.96 70 1015.3
20260903174001 85 9 2.0 7.0 0.00 1.09 0.96 73 1015.4